User: anonymous   Login
Location: Unspecified
(0.0000°N, 0.0000°E)
Time: 09:07:01
(UTC+00:00)
Language:

Diademe D-1C - Orbit

View from above orbital plane
View from above orbital plane
View from above satellite
View from above satellite

Ground track
Ground track

The orbit data is extracted from the following two-line orbital elements,

1  2674U 67011A   19345.55316107  .00000057  00000-0  28842-4 0  9994
2  2674  39.9250  66.2391 0266861  17.3610 343.6086 14.54947679741528
Epoch (UTC): 11 December 2019 13:16:33
Eccentricity: 0.0266861
inclination: 39.9250°
perigee height: 520 km
apogee height: 898 km
right ascension of ascending node: 66.2391°
argument of perigee: 17.3610°
revolutions per day: 14.54947679
mean anomaly at epoch: 343.6086°
orbit number at epoch: 74152

The dashed part of the orbit path shows where the satellite is in the earth's shadow,  

DLR